Location: Cherryland
(37.6794°N, 122.1033°W)
Time: 14:43:55
(UTC+00:00)

Cosmos 2151 - Pass Details

Date: 14 December 2025
Orbit: 559 x 575 km, 82.5° (Epoch: 17 January)

Event Time Altitude Azimuth Distance (km) Brightness Sun altitude
Rises 13:28:14 0° 169° (S) 2,733 6.7 -20.6°
Reaches altitude 10° 13:30:28 10° 162° (SSE) 1,844 5.9 -20.2°
Maximum altitude 13:34:17 41° 92° (E) 828 4.2 -19.4°
Drops below altitude 10° 13:38:09 10° 22° (NNE) 1,866 5.6 -18.7°
Sets 13:40:25 0° 16° (NNE) 2,770 6.4 -18.3°
